Regional Weather Roundup
Issued by NWS Sioux Falls, SD

Home | Current Version | Previous Version | Text Only | Print | Product List | Glossary On
Versions: 1 2 3 4 5 6 7 8 9 10 11 12 13 14 15 16 17 18 19 20 21 22 23 24 25 26 27 28 29 30 31 32 33 34 35 36 37 38 39 40 41 42 43 44 45 46 47 48 49 50
000
ASUS43 KFSD 201610
RWRFSD

WEATHER ROUNDUP FOR SE SOUTH DAKOTA/SW MINNESOTA/NW IOWA
NATIONAL WEATHER SERVICE SIOUX FALLS SD
1100 AM CDT FRI OCT 20 2017

NOTE: "FAIR" INDICATES FEW OR NO CLOUDS BELOW 12,000 FEET WITH NO
SIGNIFICANT WEATHER AND OR OBSTRUCTIONS TO VISIBILITY.


SDZ038>040-050-052>070-201700-
SOUTHEAST SOUTH DAKOTA

CITY           SKY/WX    TMP DP  RH WIND       PRES   REMARKS
BROOKINGS      SUNNY     62  51  67 S20       29.73F
CHAMBERLAIN    CLOUDY    66  51  57 S21G31    29.61F
HURON          SUNNY     64  50  60 S17G31    29.64F
MADISON        FAIR      63  54  72 S25G32    29.73F
MITCHELL       SUNNY     66  51  58 S18G32    29.67F
SIOUX FALLS    MOSUNNY   65  53  65 S23G33    29.76F
WINNER         FAIR      65  50  58 S23G32    29.60F
YANKTON        SUNNY     66  52  60 S21G31    29.75F
$$

MNZ071-072-080-081-089-090-097-098-201700-
SOUTHWEST MINNESOTA

CITY           SKY/WX    TMP DP  RH WIND       PRES   REMARKS
FAIRMONT       SUNNY     66  53  63 S24G30    29.88F
JACKSON        SUNNY     64  50  59 S20G28    29.87F
LUVERNE        SUNNY     63  50  63 S14G28    29.80F
MARSHALL       SUNNY     67  52  58 S23G30    29.76F
MONTEVIDEO     SUNNY     66  52  59 SW14G22   29.74F
PIPESTONE      SUNNY     63  50  63 S20G26    29.78F
REDWOOD FALLS  SUNNY     67  50  54 S21G31    29.79F
TRACY          SUNNY     66  53  61 S15G25    29.79F
WORTHINGTON    SUNNY     66  51  58 S18G29    29.83F
$$

IAZ001>003-012>014-020>022-031-032-NEZ013-014-SDZ071-201700-
NORTHWEST IOWA

CITY           SKY/WX    TMP DP  RH WIND       PRES   REMARKS
CHEROKEE       SUNNY     66  56  69 S18G25    29.87F
DENISON        SUNNY     66  54  63 S17G31    29.92F
ESTHERVILLE    SUNNY     63  54  72 S18G25    29.88F
LE MARS        SUNNY     63  54  72 S15G26    29.83F
ORANGE CITY    SUNNY     64  55  72 S18G28    29.83F
SHELDON        SUNNY     66  52  59 S16G24    29.82F
SIOUX CITY     SUNNY     67  55  65 S16G26    29.85F
SPENCER        SUNNY     69  52  54 S20G31    29.87F
STORM LAKE     SUNNY     68  54  60 S26G36    29.89F
$$

ABBREVIATIONS USED IN REMARKS
   TC - TEMPERATURE IN CELSIUS
  WCI - WIND CHILL INDEX
   HX - HEAT INDEX
  VSB - VISIBILITY





USA.gov is the U.S. government's official web portal to all federal, state and local government web resources and services.